This is the latest recevied weather packets stored in our database for station/object DB0MAK-13. If no packets are shown the sender has not sent any weather packets the latest 1 day(s).
| Time | Temp. | Humidity | Pressure | Rain* | Wind** | Luminosity | Snow |
|---|---|---|---|---|---|---|---|
| 1777990689 | 18.89° C | 61% | 1004.6 hPa | 0 mm | 1.34 m/s, 330° | - | - |
| 1777990444 | 18.89° C | 61% | 1004.7 hPa | 0 mm | 4.02 m/s, 332° | - | - |
| 1777990269 | 18.89° C | 61% | 1004.7 hPa | 0 mm | 6.26 m/s, 322° | - | - |
| 1777989844 | 18.89° C | 62% | 1004.7 hPa | 0 mm | 1.79 m/s, 341° | - | - |
| 1777989429 | 18.89° C | 62% | 1004.7 hPa | 0 mm | 0 m/s | - | - |
| 1777989244 | 18.89° C | 61% | 1004.7 hPa | 0 mm | 1.34 m/s, 332° | - | - |
| 1777988644 | 18.89° C | 59% | 1005 hPa | 0 mm | 1.34 m/s, 338° | - | - |
| 1777988589 | 18.89° C | 60% | 1005 hPa | 0 mm | 0.45 m/s, 351° | - | - |
| 1777988167 | 18.89° C | 58% | 1005.1 hPa | 0 mm | 1.34 m/s, 329° | - | - |
| 1777988044 | 18.89° C | 58% | 1005.1 hPa | 0 mm | 3.58 m/s, 324° | - | - |
| 1777987749 | 19.44° C | 62% | 1005.2 hPa | 0 mm | 0 m/s | - | - |
| 1777987444 | 19.44° C | 60% | 1005.1 hPa | 0 mm | 0.45 m/s, 10° | - | - |
| 1777987327 | 19.44° C | 59% | 1005.1 hPa | 0 mm | 0.45 m/s, 333° | - | - |
| 1777986844 | 19.44° C | 60% | 1005.1 hPa | 0 mm | 0.45 m/s, 357° | - | - |
| 1777986489 | 19.44° C | 58% | 1005.1 hPa | 0 mm | 3.58 m/s, 322° | - | - |
| 1777986244 | 19.44° C | 59% | 1005.2 hPa | 0 mm | 3.58 m/s, 324° | - | - |
| 1777986067 | 19.44° C | 59% | 1005.2 hPa | 0 mm | 1.34 m/s, 339° | - | - |
| 1777985644 | 20° C | 58% | 1005.1 hPa | 0 mm | 1.34 m/s, 331° | - | - |
| 1777985227 | 20° C | 58% | 1005.2 hPa | 0 mm | 1.79 m/s, 19° | - | - |
| 1777985044 | 20.56° C | 58% | 1005.2 hPa | 0 mm | 1.79 m/s, 7° | - | - |
| 1777984807 | 20.56° C | 59% | 1005.2 hPa | 0 mm | 0.45 m/s, 322° | - | - |
| 1777984444 | 20° C | 58% | 1005.2 hPa | 0 mm | 2.68 m/s, 325° | - | - |
| 1777983967 | 19.44° C | 57% | 1005.2 hPa | 0 mm | 4.02 m/s, 321° | - | - |
| 1777983844 | 19.44° C | 58% | 1005.2 hPa | 0 mm | 1.79 m/s, 328° | - | - |
| 1777983547 | 19.44° C | 59% | 1005.2 hPa | 0 mm | 2.68 m/s, 324° | - | - |
* Rain latest hour (hover to see other rain measurements)
** Current wind speed in m/s (hover to see current wind gust speed)